EW3827 Weather Reports


Display with metric or nautical units.
time (UTC)temp
F
wind
direction
speed
MPH
gust
MPH
rain 1hr
in
rain 24hr
in
rain mn
in
humidity
%
barometer
mb
20260505075509 57 224 2.0 7.0 0.00 0.00 0.00 77 1010.6
20260505074008 54 210 1.0 3.0 0.00 0.00 0.00 84 1010.7
20260505073509 54 201 1.0 3.0 0.00 0.00 0.00 84 1010.7
20260505073009 53 194 1.0 3.0 0.00 0.00 0.00 84 1010.7
20260505072509 53 202 1.0 4.0 0.00 0.00 0.00 84 1010.7
20260505072009 53 215 0.0 4.0 0.00 0.00 0.00 83 1010.7
20260505071508 53 184 0.0 1.0 0.00 0.00 0.00 83 1010.6
20260505070508 53 184 0.0 1.0 0.00 0.00 0.00 82 1010.5
20260505070009 54 184 0.0 1.0 0.00 0.00 0.00 82 1010.5
20260505065509 54 0 0.0 0.0 0.00 0.00 0.00 81 1010.4
20260505065008 54 184 0.0 1.0 0.00 0.00 0.00 80 1010.5
20260505064509 54 184 0.0 1.0 0.00 0.00 0.00 80 1010.4
20260505064009 54 184 0.0 1.0 0.00 0.00 0.00 80 1010.4
20260505063008 55 0 0.0 0.0 0.00 0.00 0.00 79 1010.6
20260505062509 55 0 0.0 0.0 0.00 0.00 0.00 79 1010.6
20260505062009 55 0 0.0 0.0 0.00 0.00 0.00 79 1010.6
20260505061009 55 184 0.0 1.0 0.00 0.00 0.00 78 1010.6
20260505060508 55 184 0.0 1.0 0.00 0.00 0.00 78 1010.6
20260505060009 56 184 0.0 1.0 0.00 0.00 0.00 77 1010.6
20260505055509 56 184 0.0 2.0 0.00 0.00 0.00 76 1010.6
20260505055008 56 201 0.0 3.0 0.00 0.00 0.00 76 1010.6
20260505054509 56 225 0.0 3.0 0.00 0.00 0.00 76 1010.6
20260505054008 56 253 0.0 3.0 0.00 0.00 0.00 76 1010.7
20260505053509 56 234 1.0 6.0 0.00 0.00 0.00 76 1010.7
20260505053009 56 220 1.0 6.0 0.00 0.00 0.00 76 1010.8
20260505052508 56 216 1.0 4.0 0.00 0.00 0.00 76 1010.7
20260505052009 56 213 1.0 4.0 0.00 0.00 0.00 75 1010.7
20260505051509 56 199 1.0 3.0 0.00 0.00 0.00 75 1010.7
20260505051008 56 210 1.0 3.0 0.00 0.00 0.00 74 1010.7
20260505041509 58 177 1.0 3.0 0.00 0.00 0.00 70 1010.8
20260505040509 58 192 1.0 4.0 0.00 0.00 0.00 70 1010.8
20260505040010 58 191 1.0 4.0 0.00 0.00 0.00 69 1010.9
20260505035509 58 206 1.0 4.0 0.00 0.00 0.00 69 1010.9
20260505034509 59 208 1.0 4.0 0.00 0.00 0.00 68 1010.8
20260505033009 59 205 1.0 4.0 0.00 0.00 0.00 67 1010.8
20260505032508 59 184 2.0 4.0 0.00 0.00 0.00 66 1010.8
20260505032008 59 177 2.0 4.0 0.00 0.00 0.00 66 1010.9
20260505031008 60 175 1.0 4.0 0.00 0.00 0.00 65 1011.0
20260505030508 60 172 2.0 6.0 0.00 0.00 0.00 65 1011.0
20260505030009 60 175 2.0 7.0 0.00 0.00 0.00 65 1011.1
20260505025509 60 167 2.0 7.0 0.00 0.00 0.00 64 1011.0
20260505025009 60 177 2.0 5.0 0.00 0.00 0.00 64 1011.0
20260505024510 60 169 2.0 4.0 0.00 0.00 0.00 63 1011.0
20260505024009 60 150 1.0 3.0 0.00 0.00 0.00 63 1011.0
20260505023508 61 163 1.0 3.0 0.00 0.00 0.00 62 1011.1
20260505023009 61 163 1.0 3.0 0.00 0.00 0.00 61 1011.1
20260505022508 61 156 1.0 4.0 0.00 0.00 0.00 61 1011.1
20260505022009 61 163 1.0 6.0 0.00 0.00 0.00 61 1011.1
20260505021509 61 159 2.0 6.0 0.00 0.00 0.00 60 1011.2
20260505021008 61 136 2.0 6.0 0.00 0.00 0.00 59 1011.2
20260505020508 61 140 2.0 6.0 0.00 0.00 0.00 59 1011.1
20260505020009 62 177 2.0 6.0 0.00 0.00 0.00 58 1011.1
20260505015508 62 193 2.0 6.0 0.00 0.00 0.00 57 1011.1
20260505015009 62 172 2.0 6.0 0.00 0.00 0.00 57 1011.1
20260505013509 62 153 2.0 4.0 0.00 0.00 0.00 56 1011.1
20260505013008 62 191 2.0 6.0 0.00 0.00 0.00 55 1011.0
20260505012509 62 187 2.0 6.0 0.00 0.00 0.00 54 1011.1
20260505012008 62 152 1.0 4.0 0.00 0.00 0.00 53 1011.0
20260505011511 62 184 2.0 4.0 0.00 0.00 0.00 52 1010.9
20260505011008 62 164 2.0 4.0 0.00 0.00 0.00 51 1010.9
20260505010508 62 155 1.0 4.0 0.00 0.00 0.00 50 1010.8
20260505005008 62 161 0.0 4.0 0.00 0.00 0.00 48 1010.5
20260505004509 62 167 0.0 3.0 0.00 0.00 0.00 48 1010.5
20260505003509 63 210 0.0 2.0 0.00 0.00 0.00 46 1010.4
20260505003008 64 234 0.0 2.0 0.00 0.00 0.00 45 1010.3
20260505002509 65 220 0.0 2.0 0.00 0.00 0.00 44 1010.3
20260505002008 65 187 0.0 2.0 0.00 0.00 0.00 43 1010.2
20260505001008 66 211 1.0 6.0 0.00 0.00 0.00 42 1010.2
20260505000508 67 215 2.0 6.0 0.00 0.00 0.00 40 1010.1
20260505000009 68 222 2.0 6.0 0.00 0.00 0.00 41 1010.0
20260504235508 68 225 1.0 7.0 0.00 0.00 0.00 39 1010.0
20260504235008 68 214 2.0 12.0 0.00 0.00 0.00 38 1010.0
20260504234509 69 208 3.0 12.0 0.00 0.00 0.00 37 1010.0
20260504234008 69 208 3.0 9.0 0.00 0.00 0.00 37 1009.9
20260504233509 70 212 3.0 8.0 0.00 0.00 0.00 37 1009.9
20260504233008 70 217 3.0 8.0 0.00 0.00 0.00 38 1009.8
20260504232509 71 219 3.0 9.0 0.00 0.00 0.00 34 1009.8
20260504232009 71 217 3.0 9.0 0.00 0.00 0.00 34 1009.7
20260504231508 71 216 3.0 8.0 0.00 0.00 0.00 34 1009.7
20260504230509 72 219 3.0 11.0 0.00 0.00 0.00 33 1009.7
20260504230008 72 222 3.0 9.0 0.00 0.00 0.00 32 1009.8
20260504225508 72 216 4.0 14.0 0.00 0.00 0.00 32 1009.7
20260504225009 72 223 4.0 14.0 0.00 0.00 0.00 32 1009.8
20260504224508 72 227 3.0 10.0 0.00 0.00 0.00 32 1009.8
20260504224009 72 223 4.0 13.0 0.00 0.00 0.00 33 1009.6
20260504223509 72 224 4.0 13.0 0.00 0.00 0.00 31 1009.7
20260504223009 73 214 3.0 10.0 0.00 0.00 0.00 32 1009.6
20260504222508 73 213 4.0 14.0 0.00 0.00 0.00 32 1009.6
20260504222009 73 221 4.0 14.0 0.00 0.00 0.00 31 1009.6
20260504221508 73 220 4.0 12.0 0.00 0.00 0.00 31 1009.7
20260504221009 73 223 4.0 12.0 0.00 0.00 0.00 32 1009.8
20260504220008 73 222 4.0 12.0 0.00 0.00 0.00 32 1009.7
20260504215509 74 223 4.0 12.0 0.00 0.00 0.00 30 1009.8
20260504215008 74 230 3.0 13.0 0.00 0.00 0.00 30 1009.8
20260504214509 74 234 3.0 13.0 0.00 0.00 0.00 31 1010.0
20260504213508 74 217 4.0 10.0 0.00 0.00 0.00 33 1009.9
20260504213009 74 229 4.0 12.0 0.00 0.00 0.00 29 1009.9
20260504212508 74 246 3.0 12.0 0.00 0.00 0.00 29 1009.9
20260504212009 74 243 3.0 11.0 0.00 0.00 0.00 29 1009.9
20260504211508 74 233 4.0 19.0 0.00 0.00 0.00 29 1009.8
20260504210509 74 242 4.0 12.0 0.00 0.00 0.00 29 1009.9
20260504210009 74 253 4.0 12.0 0.00 0.00 0.00 28 1009.9
20260504205508 74 242 4.0 13.0 0.00 0.00 0.00 30 1009.9
20260504205009 74 231 4.0 13.0 0.00 0.00 0.00 30 1009.9
20260504204509 74 231 4.0 13.0 0.00 0.00 0.00 30 1009.9
20260504204008 74 227 5.0 13.0 0.00 0.00 0.00 28 1009.9
20260504203508 74 225 5.0 13.0 0.00 0.00 0.00 30 1009.9
20260504202008 74 246 4.0 12.0 0.00 0.00 0.00 28 1009.9
20260504201509 74 222 5.0 12.0 0.00 0.00 0.00 29 1009.8
20260504201008 74 216 4.0 12.0 0.00 0.00 0.00 31 1010.0
20260504200509 74 217 3.0 9.0 0.00 0.00 0.00 30 1009.9
20260504200009 74 219 3.0 11.0 0.00 0.00 0.00 29 1010.0
20260504195009 74 217 5.0 12.0 0.00 0.00 0.00 29 1010.0
20260504194509 73 219 4.0 12.0 0.00 0.00 0.00 29 1010.2
20260504193509 73 218 5.0 14.0 0.00 0.00 0.00 31 1010.2
20260504193008 73 221 4.0 14.0 0.00 0.00 0.00 30 1010.4
20260504192509 73 226 5.0 16.0 0.00 0.00 0.00 29 1010.5
20260504192008 73 220 7.0 16.0 0.00 0.00 0.00 32 1010.5
20260504191009 72 226 4.0 17.0 0.00 0.00 0.00 30 1010.7
20260504190009 72 230 4.0 12.0 0.00 0.00 0.00 30 1010.8
20260504185508 72 229 4.0 12.0 0.00 0.00 0.00 29 1010.9
20260504184509 72 241 5.0 13.0 0.00 0.00 0.00 29 1011.1
20260504184008 72 248 4.0 12.0 0.00 0.00 0.00 30 1011.1
20260504183509 72 242 4.0 12.0 0.00 0.00 0.00 32 1011.3
20260504183008 72 238 4.0 12.0 0.00 0.00 0.00 30 1011.4
20260504182509 72 245 4.0 12.0 0.00 0.00 0.00 30 1011.4
20260504182009 72 220 5.0 20.0 0.00 0.00 0.00 30 1011.5
20260504181509 72 211 5.0 20.0 0.00 0.00 0.00 32 1011.4
20260504181008 72 217 4.0 14.0 0.00 0.00 0.00 33 1011.5
20260504180509 71 232 5.0 14.0 0.00 0.00 0.00 32 1011.6
20260504180008 71 230 5.0 14.0 0.00 0.00 0.00 31 1011.6
20260504175509 71 229 6.0 14.0 0.00 0.00 0.00 30 1011.8
20260504174509 71 241 3.0 9.0 0.00 0.00 0.00 34 1012.0
20260504174009 70 236 3.0 9.0 0.00 0.00 0.00 35 1012.0
20260504173508 70 243 4.0 12.0 0.00 0.00 0.00 32 1012.2
20260504173009 70 255 4.0 12.0 0.00 0.00 0.00 31 1012.2
20260504172508 70 243 4.0 14.0 0.00 0.00 0.00 32 1012.3
20260504172009 70 232 4.0 14.0 0.00 0.00 0.00 31 1012.4
20260504171509 69 237 4.0 12.0 0.00 0.00 0.00 32 1012.5
20260504170508 69 233 4.0 14.0 0.00 0.00 0.00 32 1012.5
20260504151009 66 226 3.0 11.0 0.00 0.00 0.00 42 1013.7
20260504141009 62 213 4.0 13.0 0.00 0.00 0.00 49 1013.8
20260504140508 62 221 4.0 12.0 0.00 0.00 0.00 51 1013.8